Weather in Blizhneosinovsky

Russia / Volgograd Oblast     48°31′44″N   43°02′21″E
temp.,
°C
wind,
m/s
gust,
m/s
humid.,
%
clouds,
%
prec.,
mm/h
press.,
hPa
HPBL,
m
28 july, wed
wed2800:00+22wnw22448 0.0 101717
03:00+20nw33493 0.0 101724
06:00+22nw22462 0.0 101747
09:00+29n23280 0.0 10171008
12:00+31nnw332430 0.0 10163106
15:00+32nnw232251 0.0 10143116
18:00+32nnw132389 0.0 10142898
21:00+27nw1233100 0.0 101425
29 july, thu
thu2900:00+26nne2233100 0.0 101431
03:00+25sse233894 0.0 101447
06:00+25sw223916 0.0 101446
09:00+30sw4526100 0.0 1013684
12:00+33wsw452221 0.0 10123181
15:00+34ssw562189 0.0 10113192
18:00+31sw242882 0.0 1010516
21:00+27n113799 0.0 101011
30 july, fri
fri3000:00+25w224159 0.0 101016
03:00+24wsw34458 0.0 101052
06:00+24w24528 0.0 1011127
09:00+31sw46325 0.0 10101087
12:00+34sw562214 0.0 10102912
15:00+35sw562016 0.0 10083415
18:00+34wsw562499 0.0 10081842
21:00+25wnw485397 0.0 1009165
31 july, sat
sat3100:00+27sw244352 0.1 100980
03:00+23wsw225817 0.1 100918
06:00+25ssw235215 0.0 101091
09:00+32wsw462328 0.0 1009822
12:00+36sw551883 0.0 10092971
15:00+35ssw451990 0.0 10093213
18:00+33s132397 0.0 1009462
21:00+26ene35489 0.0 101065
1 august, sun
sun100:00+26e384895 0.0 1011173
03:00+24e36500 0.0 101187
06:00+24ese24505 0.0 1012107
09:00+32ese34303 0.0 1011578
12:00+36sse45170 0.0 10102920
15:00+37s34152 0.0 10093518
18:00+36ssw34164 0.0 10092999
21:00+30ese22214 0.0 101011